Regional Weather Roundup
Issued by NWS

Home | Current Version | Previous Version | Text Only | Print | Product List | Glossary On
Versions: 1 2 3 4 5 6 7 8 9 10 11 12 13 14 15 16 17 18 19 20 21 22 23 24 25 26 27 28 29 30 31 32 33 34 35 36 37 38 39 40 41 42 43 44 45 46 47 48 49 50
000
ASUS43 KOAX 271210
RWRNE

WEATHER ROUNDUP FOR NEBRASKA
NATIONAL WEATHER SERVICE OMAHA NE
700 AM CDT WED MAY 27 2015

NOTES: SATELLITE DATA IS BEING USED TO AUGMENT CLOUD COVER ABOVE
       12000 FEET.
       "FAIR" INDICATES FEW OR NO CLOUDS BELOW 12,000 FEET WITH NO
       SIGNIFICANT WEATHER AND/OR OBSTRUCTIONS TO VISIBILITY.

  * THESE STATIONS DO NOT REPORT WEATHER SUCH AS RAIN...SNOW OR FOG.

NEZ001>004-019>022-054>056-271300-
NEBRASKA PANHANDLE

CITY           SKY/WX    TMP DP  RH WIND       PRES   REMARKS
SCOTTSBLUFF    CLOUDY    53  51  93 SE8       30.03S
6HR MIN TEMP:  52; 6HR MAX TEMP:  57; 6HR PCP:  0.01;

ALLIANCE       MOCLDY    54  51  90 S14       30.03S
6HR MIN TEMP:  52; 6HR MAX TEMP:  55; 6HR PCP:  0.14;

CHADRON        MOCLDY    56  53  90 SE3       29.99F
6HR MIN TEMP:  54; 6HR MAX TEMP:  61; 6HR PCP:  0.04;

KIMBALL          N/A    N/A N/A N/A MISG        N/A
SIDNEY         PTCLDY    51  49  92 SE5       30.06R
6HR MIN TEMP:  50; 6HR MAX TEMP:  56; 6HR PCP:  0.04;

$$

NEZ057>060-069>072-079>082-271300-
SOUTHWEST NEBRASKA

CITY           SKY/WX    TMP DP  RH WIND       PRES   REMARKS
NORTH PLATTE   MOCLDY    50  47  89 CALM      30.08R
6HR MIN TEMP:  46; 6HR MAX TEMP:  52;

IMPERIAL       PTCLDY    51  48  89 E5        30.06F
6HR MIN TEMP:  50; 6HR MAX TEMP:  54;

LEXINGTON      CLEAR     48  46  95 SW3       30.07R FOG
MCCOOK         MOCLDY    52  48  86 SE6       30.06F
6HR MIN TEMP:  50; 6HR MAX TEMP:  57;

OGALLALA       CLOUDY    55  52  90 CALM      30.08R
$$

NEZ005>010-023>029-035>040-094-271300-
NORTH CENTRAL NEBRASKA

CITY           SKY/WX    TMP DP  RH WIND       PRES   REMARKS
VALENTINE      PTCLDY    49  45  86 CALM      30.05R
6HR MIN TEMP:  45; 6HR MAX TEMP:  53;

AINSWORTH      PTCLDY    52  47  82 SW3       30.05R
BROKEN BOW     CLEAR     49  46  90 CALM      30.06S
6HR MIN TEMP:  47; 6HR MAX TEMP:  55;

O`NEILL        CLEAR     53  48  85 SW5       30.04S
ORD            CLEAR     46  44  93 CALM      30.05R
6HR MIN TEMP:  44; 6HR MAX TEMP:  57;

THEDFORD       CLEAR     50  47  88 NE3       30.07R
$$

NEZ041-046>049-061>064-073>077-083>087-271300-
SOUTH CENTRAL NEBRASKA

CITY           SKY/WX    TMP DP  RH WIND       PRES   REMARKS
GRAND ISLAND   CLEAR     51  47  86 W5        30.07R
6HR MIN TEMP:  49; 6HR MAX TEMP:  55;

AURORA         CLEAR     51  50  95 W5        30.06R
HASTINGS       CLEAR     52  46  80 CALM      30.06R
6HR MIN TEMP:  51; 6HR MAX TEMP:  57;

HEBRON         CLEAR     49  47  92 CALM      30.07R
HOLDREGE       CLEAR     51  47  88 SW10      30.08R
KEARNEY *      CLEAR     50  45  81 N3        30.06S
YORK           CLEAR     50  48  93 W6        30.06R
$$

NEZ011>018-030>034-042>045-271300-
NORTHEAST NEBRASKA

CITY           SKY/WX    TMP DP  RH WIND       PRES   REMARKS
NORFOLK        CLEAR     55  50  83 CALM      30.03R
6HR MIN TEMP:  50; 6HR MAX TEMP:  57;

ALBION         CLEAR     48  45  88 CALM      30.05R
BLAIR          SUNNY     55  51  86 CALM      30.02R
COLUMBUS *       N/A    N/A N/A N/A MISG        N/A
FREMONT        CLEAR     54  52  92 CALM      30.03R
TEKAMAH        SUNNY     58  51  78 SW5       30.00R
6HR MIN TEMP:  53; 6HR MAX TEMP:  58;

WAYNE          CLEAR     51  49  93 S3        30.02R
$$

NEZ050>053-065>068-078-088>093-271300-
SOUTHEAST NEBRASKA

CITY           SKY/WX    TMP DP  RH WIND       PRES   REMARKS
LINCOLN        CLEAR     53  50  89 S3        30.06R
6HR MIN TEMP:  50; 6HR MAX TEMP:  61;

OMAHA EPPLEY   SUNNY     55  53  93 S3        30.02R
6HR MIN TEMP:  53; 6HR MAX TEMP:  58;

BEATRICE       CLEAR     52  50  93 CALM      30.06R
FALLS CITY     CLEAR     57  53  86 W9        30.04R
6HR MIN TEMP:  54; 6HR MAX TEMP:  60;

NEBRASKA CITY  CLEAR     58  49  73 W8        30.04R
PLATTSMOUTH    SUNNY     58  50  76 W6        30.03R
$$

NEZ044-045-051>053-067-271300-
OMAHA AREA

CITY           SKY/WX    TMP DP  RH WIND       PRES   REMARKS
OMAHA EPPLEY   SUNNY     55  53  93 S3        30.02R
6HR MIN TEMP:  53; 6HR MAX TEMP:  58;

BLAIR          SUNNY     55  51  86 CALM      30.02R
FREMONT        CLEAR     54  52  92 CALM      30.03R
MILLARD        CLEAR     53  52  97 CALM      30.03R FOG
OFFUTT AFB     SUNNY     52  51  96 S2        30.02R
PLATTSMOUTH    SUNNY     58  50  76 W6        30.03R
WAHOO          FAIR      58  51  77 W3        30.03R
$$


USA.gov is the U.S. government's official web portal to all federal, state and local government web resources and services.